N0HOT Weather Reports


Display with metric or nautical units.
time (UTC)temp
F
wind
direction
speed
MPH
gust
MPH
rain 1hr
in
rain 24hr
in
rain mn
in
humidity
%
barometer
mb
20260506204817 45 200 4.0 4.0 0.00 0.00 0.00 39 1017.0
20260506204314 45 352 2.0 3.0 0.00 0.00 0.00 39 1016.7
20260506203811 45 266 7.0 10.0 0.00 0.00 0.00 38 1016.7
20260506203303 45 274 5.0 7.0 0.00 0.00 0.00 39 1017.0
20260506202800 45 14 3.0 3.0 0.00 0.00 0.00 39 1017.3
20260506202257 45 216 3.0 4.0 0.00 0.00 0.00 40 1017.3
20260506201753 45 257 4.0 7.0 0.00 0.00 0.00 39 1017.0
20260506201250 45 253 4.0 6.0 0.00 0.00 0.00 40 1017.0
20260506200747 45 330 2.0 3.0 0.00 0.00 0.00 40 1017.0
20260506200243 45 328 5.0 7.0 0.00 0.00 0.00 40 1017.3
20260506195740 45 283 2.0 3.0 0.00 0.00 0.00 41 1017.3
20260506195236 45 208 3.0 4.0 0.00 0.00 0.00 40 1017.3
20260506194734 45 317 4.0 6.0 0.00 0.00 0.00 40 1017.3
20260506194230 45 281 4.0 6.0 0.00 0.00 0.00 40 1017.0
20260506193728 45 277 3.0 4.0 0.00 0.00 0.00 40 1017.0
20260506193225 45 287 1.0 1.0 0.00 0.00 0.00 40 1017.0
20260506192721 45 275 3.0 3.0 0.00 0.00 0.00 40 1017.3
20260506192218 45 283 4.0 6.0 0.00 0.00 0.00 40 1017.0
20260506191715 45 322 4.0 4.0 0.00 0.00 0.00 40 1017.3
20260506191211 45 315 4.0 4.0 0.00 0.00 0.00 40 1017.3
20260506190708 45 277 6.0 9.0 0.00 0.00 0.00 40 1017.0
20260506190205 45 259 3.0 4.0 0.00 0.00 0.00 40 1017.3
20260506185702 45 270 4.0 6.0 0.00 0.00 0.00 40 1017.0
20260506185158 45 287 3.0 4.0 0.00 0.00 0.00 39 1017.3
20260506184656 45 264 5.0 8.0 0.00 0.00 0.00 40 1017.0
20260506184153 45 211 4.0 6.0 0.00 0.00 0.00 40 1017.0
20260506183650 45 313 4.0 6.0 0.00 0.00 0.00 39 1017.0
20260506183145 45 297 3.0 4.0 0.00 0.00 0.00 39 1017.0
20260506182643 45 218 2.0 3.0 0.00 0.00 0.00 39 1017.0
20260506182140 45 300 5.0 6.0 0.00 0.00 0.00 39 1017.0
20260506181638 45 339 6.0 7.0 0.00 0.00 0.00 38 1017.0
20260506181135 45 294 6.0 7.0 0.00 0.00 0.00 38 1017.0
20260506180632 45 300 5.0 6.0 0.00 0.00 0.00 39 1016.7
20260506180128 45 309 6.0 8.0 0.00 0.00 0.00 38 1016.7
20260506175624 45 278 4.0 6.0 0.00 0.00 0.00 39 1017.0
20260506175120 45 314 2.0 2.0 0.00 0.00 0.00 39 1017.0
20260506174620 45 281 5.0 6.0 0.00 0.00 0.00 39 1017.0
20260506174116 45 282 2.0 3.0 0.00 0.00 0.00 39 1017.3
20260506173614 45 309 3.0 4.0 0.00 0.00 0.00 39 1016.7
20260506173110 45 222 4.0 6.0 0.00 0.00 0.00 39 1017.0
20260506172608 46 311 6.0 7.0 0.00 0.00 0.00 38 1016.7
20260506172103 46 335 2.0 3.0 0.00 0.00 0.00 38 1017.0
20260506171601 46 277 3.0 4.0 0.00 0.00 0.00 39 1017.0
20260506171059 46 311 5.0 7.0 0.00 0.00 0.00 37 1017.3
20260506170556 46 76 1.0 1.0 0.00 0.00 0.00 38 1017.0
20260506170053 46 334 2.0 2.0 0.00 0.00 0.00 39 1017.0
20260506165552 45 256 3.0 4.0 0.00 0.00 0.00 38 1017.0
20260506165047 45 246 5.0 6.0 0.00 0.00 0.00 37 1016.7
20260506164545 45 96 4.0 6.0 0.00 0.00 0.00 37 1017.0
20260506164042 45 286 3.0 4.0 0.00 0.00 0.00 40 1017.0
20260506163538 45 49 2.0 3.0 0.00 0.00 0.00 38 1016.7
20260506163033 45 302 3.0 4.0 0.00 0.00 0.00 39 1017.0
20260506162530 45 318 4.0 4.0 0.00 0.00 0.00 40 1017.0
20260506162027 45 309 3.0 3.0 0.00 0.00 0.00 39 1017.0
20260506161525 45 236 1.0 2.0 0.00 0.00 0.00 40 1017.0
20260506161022 44 279 6.0 7.0 0.00 0.00 0.00 39 1017.3
20260506160520 44 312 3.0 3.0 0.00 0.00 0.00 40 1017.3
20260506160016 44 295 4.0 6.0 0.00 0.00 0.00 40 1017.3
20260506155514 45 283 6.0 8.0 0.00 0.00 0.00 40 1017.0
20260506153646 45 340 1.0 2.0 0.00 0.00 0.00 42 1017.3
20260506153143 45 354 3.0 3.0 0.00 0.00 0.00 39 1017.0
20260506152640 45 339 4.0 4.0 0.00 0.00 0.00 43 1017.0
20260506152138 44 292 2.0 3.0 0.00 0.00 0.00 41 1016.7
20260506151636 44 277 4.0 6.0 0.00 0.00 0.00 40 1017.0
20260506151133 43 262 4.0 4.0 0.00 0.00 0.00 40 1017.0
20260506150630 43 4 4.0 4.0 0.00 0.00 0.00 40 1017.3
20260506150126 43 14 2.0 3.0 0.00 0.00 0.00 43 1017.8
20260506145624 43 301 2.0 2.0 0.00 0.00 0.00 43 1017.3
20260506145120 43 270 4.0 4.0 0.00 0.00 0.00 44 1017.3
20260506144618 43 314 2.0 2.0 0.00 0.00 0.00 43 1017.8
20260506144114 42 314 2.0 3.0 0.00 0.00 0.00 42 1017.8
20260506143612 42 164 3.0 3.0 0.00 0.00 0.00 44 1017.8
20260506143110 42 25 1.0 1.0 0.00 0.00 0.00 43 1018.1
20260506142608 42 258 2.0 2.0 0.00 0.00 0.00 44 1017.8
20260506142106 42 46 2.0 2.0 0.00 0.00 0.00 44 1017.8
20260506141603 43 314 4.0 6.0 0.00 0.00 0.00 44 1018.1
20260506141102 42 18 3.0 4.0 0.00 0.00 0.00 44 1017.8
20260506140558 42 270 4.0 6.0 0.00 0.00 0.00 45 1017.8
20260506140056 42 14 0.0 0.0 0.00 0.00 0.00 46 1017.8
20260506135552 42 358 1.0 2.0 0.00 0.00 0.00 44 1017.3
20260506135048 41 333 4.0 4.0 0.00 0.00 0.00 45 1017.3
20260506134545 41 286 2.0 2.0 0.00 0.00 0.00 47 1017.3
20260506134041 41 5 1.0 2.0 0.00 0.00 0.00 47 1017.8
20260506133539 40 235 1.0 1.0 0.00 0.00 0.00 48 1017.3
20260506133036 40 357 2.0 3.0 0.00 0.00 0.00 48 1017.8
20260506132533 40 313 5.0 7.0 0.00 0.00 0.00 48 1017.8
20260506132030 39 1 2.0 3.0 0.00 0.00 0.00 48 1017.8
20260506131527 39 37 1.0 2.0 0.00 0.00 0.00 49 1017.8
20260506131023 39 296 3.0 3.0 0.00 0.00 0.00 50 1017.8
20260506130520 38 287 2.0 3.0 0.00 0.00 0.00 52 1017.8
20260506130018 37 296 2.0 3.0 0.00 0.00 0.00 53 1017.8
20260506125516 37 254 5.0 6.0 0.00 0.00 0.00 53 1017.8
20260506125013 36 49 1.0 2.0 0.00 0.00 0.00 54 1017.8
20260506124511 36 49 0.0 1.0 0.00 0.00 0.00 57 1017.3
20260506124009 35 49 0.0 0.0 0.00 0.00 0.00 57 1017.3
20260506123506 35 348 0.0 0.0 0.00 0.00 0.00 57 1017.3
20260506123004 35 346 1.0 1.0 0.00 0.00 0.00 59 1017.8
20260506122501 35 343 0.0 0.0 0.00 0.00 0.00 58 1017.8
20260506121959 34 338 1.0 1.0 0.00 0.00 0.00 59 1017.8
20260506121456 34 27 0.0 1.0 0.00 0.00 0.00 60 1017.3
20260506120952 34 27 1.0 1.0 0.00 0.00 0.00 62 1017.3
20260506120450 34 27 1.0 2.0 0.00 0.00 0.00 62 1017.3
20260506115947 34 27 0.0 0.0 0.00 0.00 0.00 62 1017.3
20260506115445 34 27 0.0 0.0 0.00 0.00 0.00 61 1017.0
20260506114943 34 27 0.0 0.0 0.00 0.00 0.00 61 1017.0
20260506114440 34 27 1.0 1.0 0.00 0.00 0.00 62 1017.0
20260506113939 34 27 0.0 0.0 0.00 0.00 0.00 62 1017.0
20260506113436 34 27 1.0 1.0 0.00 0.00 0.00 62 1017.3
20260506112932 34 27 0.0 0.0 0.00 0.00 0.00 62 1017.0
20260506112431 34 27 1.0 1.0 0.00 0.00 0.00 62 1017.0
20260506111927 34 27 0.0 0.0 0.00 0.00 0.00 62 1017.0
20260506111425 34 27 1.0 1.0 0.00 0.00 0.00 62 1017.0
20260506110922 34 27 1.0 1.0 0.00 0.00 0.00 61 1017.0
20260506110420 34 27 1.0 1.0 0.00 0.00 0.00 61 1016.7
20260506105916 34 27 0.0 1.0 0.00 0.00 0.00 61 1016.7
20260506105413 34 27 1.0 1.0 0.00 0.00 0.00 61 1016.7
20260506104910 34 27 1.0 1.0 0.00 0.00 0.00 61 1016.3
20260506104408 34 27 1.0 1.0 0.00 0.00 0.00 61 1016.3
20260506103905 34 27 1.0 1.0 0.00 0.00 0.00 61 1016.3
20260506103402 35 27 1.0 1.0 0.00 0.00 0.00 61 1016.3
20260506102900 35 27 1.0 1.0 0.00 0.00 0.00 61 1016.0
20260506102358 35 27 1.0 1.0 0.00 0.00 0.00 61 1016.3
20260506101854 35 27 0.0 0.0 0.00 0.00 0.00 61 1016.0
20260506101351 35 27 0.0 1.0 0.00 0.00 0.00 61 1016.0
20260506100848 35 27 1.0 1.0 0.00 0.00 0.00 61 1016.0
20260506100347 35 27 0.0 0.0 0.00 0.00 0.00 61 1016.3
20260506095845 35 27 1.0 1.0 0.00 0.00 0.00 60 1016.0
20260506095342 35 27 1.0 1.0 0.00 0.00 0.00 60 1016.0
20260506094838 36 27 1.0 1.0 0.00 0.00 0.00 59 1016.0
20260506094338 36 28 1.0 1.0 0.00 0.00 0.00 59 1016.0
20260506093835 36 27 1.0 1.0 0.00 0.00 0.00 59 1015.6
20260506093332 36 27 1.0 1.0 0.00 0.00 0.00 59 1015.6
20260506092830 36 28 0.0 0.0 0.00 0.00 0.00 59 1015.6
20260506092327 36 27 0.0 0.0 0.00 0.00 0.00 59 1015.6
20260506091818 37 28 0.0 0.0 0.00 0.00 0.00 59 1015.3
20260506091316 37 28 0.0 0.0 0.00 0.00 0.00 58 1015.6
20260506090814 37 28 0.0 0.0 0.00 0.00 0.00 58 1015.6
20260506090310 37 28 0.0 1.0 0.00 0.00 0.00 57 1015.3
20260506085807 37 28 0.0 0.0 0.00 0.00 0.00 57 1015.3
20260506085305 37 28 0.0 0.0 0.00 0.00 0.00 57 1015.3
20260506084800 37 342 1.0 1.0 0.00 0.00 0.00 56 1015.3
20260506084256 37 336 1.0 1.0 0.00 0.00 0.00 57 1015.3
20260506083754 38 350 0.0 1.0 0.00 0.00 0.00 56 1015.0
20260506083251 38 351 1.0 1.0 0.00 0.00 0.00 56 1015.0
20260506082748 38 349 1.0 1.0 0.00 0.00 0.00 56 1015.0
20260506082244 38 355 0.0 0.0 0.00 0.00 0.00 56 1015.0
20260506081742 38 356 0.0 0.0 0.00 0.00 0.00 55 1015.0
20260506081239 38 2 0.0 1.0 0.00 0.00 0.00 54 1014.6
20260506080737 38 350 0.0 1.0 0.00 0.00 0.00 54 1015.0
20260506080233 39 350 0.0 0.0 0.00 0.00 0.00 54 1015.0
20260506073217 39 354 0.0 0.0 0.00 0.00 0.00 53 1014.6
20260506072714 39 355 0.0 0.0 0.00 0.00 0.00 53 1014.6
20260506072212 39 320 0.0 0.0 0.00 0.00 0.00 53 1014.6
20260506071709 39 357 0.0 0.0 0.00 0.00 0.00 54 1014.6
20260506071207 39 357 0.0 1.0 0.00 0.00 0.00 53 1014.3
20260506070703 39 350 0.0 1.0 0.00 0.00 0.00 53 1014.6
20260506070201 39 347 0.0 1.0 0.00 0.00 0.00 53 1013.9
20260506062137 40 35 0.0 0.0 0.00 0.00 0.00 54 1013.6
20260506061633 41 35 0.0 0.0 0.00 0.00 0.00 53 1013.9
20260506061131 41 308 0.0 0.0 0.00 0.00 0.00 53 1013.9
20260506060629 41 344 0.0 0.0 0.00 0.00 0.00 52 1013.9
20260506060126 41 332 0.0 0.0 0.00 0.00 0.00 50 1013.9
20260506051058 42 357 0.0 0.0 0.00 0.00 0.00 49 1013.2
20260506050556 43 351 1.0 1.0 0.00 0.00 0.00 49 1013.2
20260506045046 43 347 0.0 0.0 0.00 0.01 0.01 47 1013.2
20260506044544 44 326 0.0 0.0 0.00 0.01 0.01 47 1012.8
20260506044041 44 325 0.0 0.0 0.00 0.01 0.01 47 1013.2
20260506043538 44 287 1.0 1.0 0.00 0.01 0.01 48 1013.2
20260506043036 44 317 1.0 1.0 0.00 0.01 0.01 49 1012.8
20260506042535 44 333 0.0 1.0 0.00 0.01 0.01 49 1012.8
20260506042033 45 280 1.0 1.0 0.00 0.01 0.01 44 1012.8
20260506041531 45 274 1.0 1.0 0.00 0.01 0.01 44 1012.8
20260506041027 45 281 1.0 1.0 0.00 0.01 0.01 45 1012.8
20260506040525 45 282 1.0 1.0 0.00 0.01 0.01 44 1012.8
20260506040021 46 297 0.0 1.0 0.00 0.01 0.01 47 1012.8
20260506035518 46 283 1.0 2.0 0.00 0.01 0.01 45 1012.8
20260506035015 46 263 1.0 1.0 0.00 0.01 0.01 46 1012.8
20260506034513 46 264 0.0 0.0 0.00 0.01 0.01 48 1012.5
20260506034009 47 314 1.0 1.0 0.00 0.01 0.01 40 1012.5
20260506033507 47 299 1.0 1.0 0.00 0.01 0.01 41 1012.5
20260506033004 47 337 0.0 1.0 0.00 0.01 0.01 41 1012.5
20260506032501 47 298 1.0 2.0 0.00 0.01 0.01 39 1012.5
20260506031957 47 279 1.0 1.0 0.00 0.01 0.01 40 1012.5
20260506031455 48 350 0.0 0.0 0.00 0.01 0.01 41 1012.5
20260506030952 48 291 1.0 2.0 0.00 0.01 0.01 40 1012.2
20260506030450 48 337 0.0 1.0 0.00 0.01 0.01 40 1012.5
20260506025946 48 332 1.0 1.0 0.00 0.01 0.01 39 1012.2
20260506025443 48 290 2.0 2.0 0.00 0.01 0.01 38 1012.5
20260506024940 48 301 1.0 1.0 0.00 0.01 0.01 38 1012.2
20260506024437 48 246 2.0 2.0 0.00 0.01 0.01 38 1012.2
20260506023932 48 283 0.0 1.0 0.00 0.01 0.01 38 1012.2
20260506023429 48 294 0.0 1.0 0.00 0.01 0.01 38 1012.2
20260506022926 48 341 0.0 0.0 0.00 0.01 0.01 39 1012.2
20260506022424 48 358 0.0 1.0 0.00 0.01 0.01 38 1012.2
20260506021922 48 290 4.0 4.0 0.00 0.01 0.01 38 1011.8
20260506021419 48 272 1.0 2.0 0.00 0.01 0.01 39 1011.8
20260506020916 48 328 0.0 0.0 0.00 0.01 0.01 40 1011.8
20260506020414 48 329 0.0 0.0 0.00 0.01 0.01 39 1011.8
20260506015911 48 305 1.0 1.0 0.00 0.01 0.01 39 1011.5
20260506015408 49 296 1.0 1.0 0.00 0.01 0.01 38 1011.5
20260506014905 49 321 0.0 1.0 0.00 0.01 0.01 40 1011.1
20260506014401 49 333 0.0 1.0 0.00 0.01 0.01 36 1011.5
20260506013858 49 338 0.0 0.0 0.00 0.01 0.01 35 1011.1
20260506013356 49 342 0.0 0.0 0.00 0.01 0.01 35 1011.5
20260506012852 49 251 1.0 2.0 0.00 0.01 0.01 36 1011.1
20260506012349 49 2 0.0 0.0 0.00 0.01 0.01 35 1011.1
20260506011846 49 36 0.0 1.0 0.00 0.01 0.01 35 1011.1
20260506011343 50 5 0.0 0.0 0.00 0.01 0.01 34 1011.1
20260506010840 50 337 1.0 1.0 0.00 0.01 0.01 34 1011.1
20260506010338 50 34 0.0 0.0 0.00 0.01 0.01 34 1010.8
20260506005835 50 13 0.0 0.0 0.00 0.01 0.01 34 1011.1
20260506005332 51 30 0.0 1.0 0.00 0.01 0.01 33 1010.8
20260506004828 51 3 3.0 3.0 0.00 0.01 0.01 32 1010.8
20260506004325 51 341 0.0 1.0 0.00 0.01 0.01 32 1010.8
20260506003821 51 343 0.0 1.0 0.00 0.01 0.01 33 1010.8
20260506003318 51 269 0.0 1.0 0.00 0.01 0.01 32 1010.5
20260506002814 51 305 0.0 1.0 0.00 0.01 0.01 31 1010.8
20260506002311 51 18 1.0 1.0 0.00 0.01 0.01 31 1010.5
20260506001806 51 296 3.0 3.0 0.00 0.01 0.01 31 1010.5
20260506001304 51 64 1.0 3.0 0.00 0.01 0.01 31 1010.5
20260506000801 51 6 2.0 2.0 0.00 0.01 0.01 31 1010.5
20260506000258 51 53 1.0 1.0 0.00 0.01 0.01 31 1010.5
20260505235755 51 159 1.0 1.0 0.00 0.01 0.01 30 1010.5
20260505235253 51 163 2.0 3.0 0.00 0.01 0.01 30 1010.5
20260505234749 51 185 0.0 1.0 0.00 0.01 0.01 32 1010.5
20260505234247 52 151 1.0 1.0 0.00 0.01 0.01 31 1010.5
20260505233743 52 187 2.0 3.0 0.00 0.01 0.01 29 1010.5
20260505233242 52 210 3.0 3.0 0.00 0.01 0.01 29 1010.1
20260505232739 52 187 2.0 3.0 0.00 0.01 0.01 28 1010.5
20260505232236 53 166 2.0 2.0 0.00 0.01 0.01 27 1010.5
20260505231732 53 241 3.0 3.0 0.00 0.01 0.01 28 1010.1
20260505231232 53 175 3.0 4.0 0.00 0.01 0.01 28 1010.5
20260505230729 53 225 2.0 2.0 0.00 0.01 0.01 30 1010.1
20260505230226 53 186 2.0 2.0 0.00 0.01 0.01 27 1010.1
20260505225722 53 183 3.0 4.0 0.00 0.01 0.01 28 1010.1
20260505225219 53 160 2.0 3.0 0.00 0.01 0.01 28 1010.1
20260505224715 53 184 2.0 3.0 0.00 0.01 0.01 28 1010.5
20260505224212 53 225 3.0 3.0 0.00 0.01 0.01 29 1010.5
20260505223710 53 186 5.0 7.0 0.00 0.01 0.01 28 1010.5
20260505223206 53 182 3.0 6.0 0.00 0.01 0.01 27 1010.5
20260505222702 53 173 2.0 3.0 0.00 0.01 0.01 29 1010.5
20260505222158 53 181 1.0 2.0 0.00 0.01 0.01 28 1010.5
20260505221655 53 194 3.0 4.0 0.00 0.01 0.01 28 1010.5
20260505221152 53 259 2.0 3.0 0.00 0.01 0.01 28 1010.5
20260505220649 53 176 2.0 2.0 0.05 0.01 0.01 27 1010.1
20260505220147 53 187 3.0 3.0 0.05 0.01 0.01 28 1010.1
20260505215644 53 214 3.0 3.0 0.00 0.00 0.00 28 1010.5
20260505215142 53 259 4.0 6.0 0.00 0.00 0.00 28 1010.1
20260505214640 53 183 0.0 1.0 0.00 0.00 0.00 28 1010.1
20260505214137 53 187 4.0 6.0 0.00 0.00 0.00 28 1010.5
20260505213634 53 152 5.0 7.0 0.00 0.00 0.00 28 1010.1
20260505213131 54 197 4.0 6.0 0.00 0.00 0.00 27 1010.1
20260505212627 54 228 3.0 3.0 0.00 0.00 0.00 27 1010.1
20260505212125 54 180 4.0 6.0 0.00 0.00 0.00 27 1010.5
20260505211621 54 178 4.0 6.0 0.00 0.00 0.00 27 1010.1
20260505211119 54 161 1.0 2.0 0.00 0.00 0.00 27 1010.5
20260505210615 54 191 6.0 8.0 0.00 0.00 0.00 26 1009.8
20260505210112 55 233 4.0 6.0 0.00 0.00 0.00 27 1010.1
20260505205610 55 159 7.0 8.0 0.00 0.00 0.00 27 1010.1
20260505205107 55 183 4.0 6.0 0.00 0.00 0.00 28 1010.1